Regional Weather Roundup
Issued by NWS

Home | Current Version | Previous Version | Graphics & Text | Print | Product List | Glossary On
Versions: 1 2 3 4 5 6 7 8 9 10 11 12 13 14 15 16 17 18 19 20 21 22 23 24 25 26 27 28
000
ASUS45 KBOI 060910
RWRID

IDAHO REGIONAL WEATHER ROUNDUP
NATIONAL WEATHER SERVICE BOISE ID
300 AM MDT FRI MAY 06 2016

NOTE: "FAIR" INDICATES FEW OR NO CLOUDS BELOW 12000 FEET
WITH NO SIGNIFICANT WEATHER AND/OR OBSTRUCTIONS TO VISIBILITY

IDZ012-014-061000-
SOUTHWEST IDAHO


CITY           SKY/WX    TMP DP  RH WIND       PRES   REMARKS
BOISE          CLOUDY    58  48  69 VRB3      29.82R
CALDWELL       CLOUDY    59  50  72 W14       29.82R
MOUNTAIN HOME  MOCLDY    60  48  64 NW16      29.80R
$$

IDZ016-017-061000-
SOUTHCENTRAL IDAHO


CITY           SKY/WX    TMP DP  RH WIND       PRES   REMARKS
BURLEY         LGT RAIN  63  44  50 W8        29.82F
JEROME         CLOUDY    56  46  69 SE5       29.86F
TWIN FALLS     CLOUDY    56  42  59 SW10      29.86F
$$

IDZ019>023-061000-
SOUTHEAST IDAHO


CITY           SKY/WX    TMP DP  RH WIND       PRES   REMARKS
IDAHO FALLS    CLOUDY    55  39  54 W5        29.88R
POCATELLO      CLOUDY    63  41  44 SW9       29.87F
REXBURG        CLOUDY    56  34  43 SE8       29.90R
$$

IDZ006-010-011-018-031-032-061000-
CENTRAL IDAHO MOUNTAINS


CITY           SKY/WX    TMP DP  RH WIND       PRES   REMARKS
MCCALL         MOCLDY    53  42  66 N14G21    29.93S
HAILEY         CLOUDY    55  43  62 E5        29.96R
STANLEY          N/A     38  33  82 CALM      30.01R
SALMON         PTCLDY    52  36  54 SE5       29.89S
CHALLIS        CLOUDY    49  38  65 NE3       29.93S
$$

IDZ002-004-006-007-026-061000-
NORTHERN IDAHO


CITY           SKY/WX    TMP DP  RH WIND       PRES   REMARKS
LEWISTON       MOCLDY    59  56  89 E5        29.94R
LOWELL           N/A     54  53  97 CALM      29.97S
COEUR D`ALENE  CLOUDY   N/A N/A N/A N12       29.96S
MULLAN PASS    HVY RAIN  43  43 100 S3          N/A  FOG
$$




USA.gov is the U.S. government's official web portal to all federal, state and local government web resources and services.